Weather History for KJFZ - February, 2014

Change the Weather History Date:

Sunday, February 16, 2014

  Actual Average (KBLF) Record (KBLF)
Temperature  
Mean Temperature 29 °F 38 °F  
Max Temperature 38 °F 46 °F 64 °F (1976)
Min Temperature 20 °F 29 °F -2 °F (1991)
Degree Days  
Heating Degree Days 36 27  
Month to date heating degree days 461  
Since 1 July heating degree days 3181  
Cooling Degree Days 0 0  
Month to date cooling degree days 0  
Year to date cooling degree days 0  
Moisture  
Dew Point 24 °F    
Average Humidity 76    
Maximum Humidity 91    
Minimum Humidity 64    
Precipitation  
Precipitation 0.00 in 0.10 in 0.88 in (1987)
Month to date precipitation 1.54  
Year to date precipitation 4.44  
Snow  
Snow 0.00 in - - ()
Month to date snowfall  
Since 1 July snowfall  
Snow Depth -    
Sea Level Pressure  
Sea Level Pressure 30.01 in    
Wind  
Wind Speed 5 mph (West)    
Max Wind Speed 15 mph    
Max Gust Speed 22 mph    
Visibility 9 miles    
Events Snow    
T = Trace of Precipitation, MM = Missing Value Source: NWS Daily Summary

Daily Weather History Graph

Daily Weather History Graph

Search for Another Location

Airport or City:

Trip Planner

Search our weather history database for the weather conditions in past years. The results will help you decide how hot, cold, wet, or windy it might be!

Date:

Astronomy

Feb. 16, 2014 Rise Set
Actual Time 7:14 AM EST 6:08 PM EST
Civil Twilight 6:48 AM EST 6:34 PM EST
Nautical Twilight 6:17 AM EST 7:05 PM EST
Astronomical Twilight 5:47 AM EST 7:35 PM EST
Moon 8:00 PM EST (2/16) 7:47 AM EST (2/16)
Length of Visible Light 11h 46m
Length of Day
10h 53m
Full, 97% of the Moon is Illuminated
Feb 16
Full
Feb 22
Last Quarter
Mar 1
New
Mar 8
First Quarter
Mar 16
Full

Hourly Weather History & Observations

Time (EST) Temp. Windchill Dew Point Humidity Pressure Visibility Wind Dir Wind Speed Gust Speed Precip Events Conditions
12:15 AM 20.7 °F 15.8 °F 15.4 °F 80% 29.98 in 10.0 mi West 3.5 mph - N/A   Scattered Clouds
12:35 AM 20.3 °F - 15.3 °F 81% 29.99 in 10.0 mi Calm Calm - N/A   Mostly Cloudy
12:55 AM 20.3 °F 15.4 °F 15.6 °F 82% 29.98 in 10.0 mi West 3.5 mph - N/A   Overcast
1:15 AM 20.8 °F - 15.4 °F 80% 29.97 in 10.0 mi Calm Calm - N/A   Overcast
1:35 AM 20.7 °F - 15.4 °F 80% 29.97 in 10.0 mi Calm Calm - N/A   Overcast
1:55 AM 21.4 °F - 15.3 °F 77% 29.96 in 10.0 mi Calm Calm - N/A   Overcast
2:15 AM 21.9 °F - 15.6 °F 77% 29.96 in 10.0 mi Calm Calm - N/A   Overcast
2:35 AM 22.1 °F - 15.8 °F 77% 29.96 in 10.0 mi Calm Calm - N/A   Overcast
2:55 AM 22.1 °F 13.7 °F 16.3 °F 79% 29.96 in 7.0 mi WSW 6.9 mph - N/A Snow Light Snow
3:15 AM 22.6 °F 14.3 °F 18.1 °F 83% 29.96 in 2.0 mi SW 6.9 mph - N/A Snow Light Snow
3:35 AM 23.5 °F 14.5 °F 19.9 °F 86% 29.96 in 1.5 mi WSW 8.1 mph - N/A Snow Light Snow
3:55 AM 23.4 °F 16.2 °F 19.9 °F 87% 29.96 in 2.0 mi West 5.8 mph - N/A Snow Light Snow
4:15 AM 21.9 °F 14.5 °F 18.9 °F 88% 29.96 in 1.5 mi West 5.8 mph - N/A Snow Snow
4:35 AM 22.8 °F - 19.6 °F 87% 29.95 in 3.0 mi Calm Calm - N/A Snow Light Snow
4:55 AM 22.6 °F - 19.6 °F 88% 29.95 in 10.0 mi Calm Calm - N/A   Overcast
5:15 AM 22.8 °F 13.6 °F 20.5 °F 91% 29.96 in 7.0 mi WSW 8.1 mph - N/A   Overcast
5:35 AM 24.3 °F 19.9 °F 21.2 °F 88% 29.94 in 10.0 mi SSE 3.5 mph - N/A   Overcast
5:55 AM 23.4 °F - 20.8 °F 90% 29.94 in 7.0 mi Calm Calm - N/A   Overcast
6:15 AM 23.2 °F 17.2 °F 20.5 °F 89% 29.96 in 7.0 mi West 4.6 mph - N/A   Overcast
6:35 AM 24.4 °F 20.1 °F 21.9 °F 90% 29.95 in 5.0 mi SW 3.5 mph - N/A Snow Light Snow
6:55 AM 24.4 °F 20.1 °F 21.6 °F 89% 29.95 in 10.0 mi South 3.5 mph - N/A   Overcast
7:15 AM 24.8 °F 17.9 °F 21.2 °F 86% 29.96 in 10.0 mi SW 5.8 mph - N/A   Overcast
7:35 AM 26.2 °F 17.1 °F 20.8 °F 80% 29.96 in 10.0 mi WSW 9.2 mph 16.1 mph N/A   Overcast
7:55 AM 26.2 °F 18.6 °F 21.0 °F 81% 29.96 in 10.0 mi WSW 6.9 mph - N/A   Mostly Cloudy
8:15 AM 27.7 °F 18.8 °F 21.6 °F 78% 29.97 in 10.0 mi WSW 9.2 mph 17.3 mph N/A   Overcast
8:35 AM 28.4 °F 20.4 °F 21.6 °F 76% 29.97 in 10.0 mi SW 8.1 mph - N/A   Overcast
8:55 AM 28.8 °F 21.7 °F 21.9 °F 76% 29.98 in 10.0 mi WSW 6.9 mph - N/A   Overcast
9:15 AM 29.7 °F 20.1 °F 21.9 °F 73% 29.98 in 10.0 mi SW 11.5 mph 18.4 mph N/A   Overcast
9:35 AM 30.6 °F 23.1 °F 21.9 °F 70% 29.98 in 10.0 mi WSW 8.1 mph 17.3 mph N/A   Overcast
9:55 AM 30.6 °F 23.1 °F 22.1 °F 71% 29.98 in 10.0 mi WSW 8.1 mph 21.9 mph N/A   Overcast
10:15 AM 31.1 °F 21.4 °F 22.1 °F 69% 29.98 in 10.0 mi WSW 12.7 mph 17.3 mph N/A   Overcast
10:35 AM 31.6 °F 23.1 °F 22.6 °F 69% 29.99 in 10.0 mi WSW 10.4 mph 19.6 mph N/A   Overcast
10:55 AM 32.0 °F 24.2 °F 23.0 °F 69% 29.99 in 10.0 mi WSW 9.2 mph - N/A   Overcast
11:15 AM 33.3 °F 25.1 °F 23.2 °F 67% 29.99 in 10.0 mi WSW 10.4 mph 17.3 mph N/A   Overcast
11:35 AM 33.3 °F 25.7 °F 23.4 °F 67% 29.99 in 10.0 mi West 9.2 mph 16.1 mph N/A   Overcast
11:55 AM 34.7 °F 26.4 °F 23.5 °F 64% 29.99 in 10.0 mi WSW 11.5 mph 18.4 mph N/A   Overcast
12:15 PM 35.1 °F 25.5 °F 24.3 °F 65% 29.99 in 10.0 mi WSW 15.0 mph 21.9 mph N/A   Overcast
12:35 PM 35.6 °F 28.0 °F 25.0 °F 65% 30.00 in 10.0 mi WSW 10.4 mph - N/A   Overcast
12:55 PM 36.0 °F 29.6 °F 25.2 °F 65% 29.99 in 10.0 mi West 8.1 mph - N/A   Overcast
1:15 PM 36.7 °F 29.4 °F 25.5 °F 64% 29.98 in 10.0 mi SW 10.4 mph 18.4 mph N/A   Overcast
1:35 PM 37.0 °F 29.3 °F 25.7 °F 64% 29.98 in 10.0 mi WSW 11.5 mph 16.1 mph N/A   Overcast
1:55 PM 37.2 °F 30.6 °F 26.4 °F 65% 29.98 in 10.0 mi WSW 9.2 mph - N/A   Overcast
2:15 PM 37.6 °F 30.0 °F 27.0 °F 66% 29.98 in 10.0 mi West 11.5 mph 18.4 mph N/A   Overcast
2:35 PM 37.8 °F 31.3 °F 27.0 °F 65% 29.98 in 10.0 mi West 9.2 mph - N/A   Overcast
2:55 PM 37.8 °F 31.8 °F 27.1 °F 66% 29.98 in 10.0 mi West 8.1 mph - N/A   Overcast
3:15 PM 37.9 °F 33.5 °F 27.5 °F 66% 29.99 in 10.0 mi West 5.8 mph - N/A   Overcast
3:35 PM 38.3 °F 34.8 °F 27.5 °F 65% 29.99 in 10.0 mi West 4.6 mph - N/A   Overcast
3:55 PM 38.7 °F 33.6 °F 28.0 °F 66% 30.00 in 10.0 mi WNW 6.9 mph - N/A   Overcast
4:15 PM 38.7 °F 33.6 °F 28.2 °F 66% 30.01 in 10.0 mi WNW 6.9 mph - N/A   Overcast
4:35 PM 38.7 °F 35.2 °F 28.4 °F 67% 30.02 in 10.0 mi WNW 4.6 mph - N/A   Overcast
4:55 PM 38.3 °F 31.9 °F 28.8 °F 69% 30.04 in 10.0 mi WNW 9.2 mph - N/A   Overcast
5:15 PM 38.1 °F 32.3 °F 28.9 °F 70% 30.04 in 10.0 mi NW 8.1 mph - N/A   Overcast
5:35 PM 37.8 °F 31.8 °F 29.1 °F 71% 30.05 in 10.0 mi WNW 8.1 mph - N/A   Overcast
5:55 PM 37.8 °F 31.8 °F 29.3 °F 72% 30.05 in 10.0 mi NW 8.1 mph 17.3 mph N/A   Overcast
6:15 PM 36.7 °F 29.4 °F 29.1 °F 74% 30.06 in 10.0 mi NNW 10.4 mph 16.1 mph N/A   Overcast
6:35 PM 36.0 °F 29.0 °F 28.8 °F 75% 30.07 in 10.0 mi NNW 9.2 mph 18.4 mph N/A   Mostly Cloudy
6:55 PM 35.6 °F 28.6 °F 28.4 °F 75% 30.08 in 10.0 mi NNW 9.2 mph - N/A   Scattered Clouds
7:15 PM 34.9 °F 26.6 °F 28.4 °F 77% 30.10 in 10.0 mi NNW 11.5 mph - N/A   Clear
7:35 PM 34.5 °F 26.7 °F 28.2 °F 78% 30.11 in 10.0 mi NNW 10.4 mph - N/A   Clear
7:55 PM 33.8 °F 27.0 °F 28.0 °F 79% 30.11 in 10.0 mi NNW 8.1 mph - N/A   Scattered Clouds
8:15 PM 33.8 °F 27.0 °F 27.9 °F 79% 30.11 in 10.0 mi NW 8.1 mph - N/A   Clear
8:35 PM 33.6 °F 29.4 °F 27.5 °F 78% 30.12 in 10.0 mi NW 4.6 mph - N/A   Scattered Clouds
8:55 PM 32.9 °F 26.7 °F 27.5 °F 81% 30.12 in 10.0 mi NNW 6.9 mph - N/A   Mostly Cloudy
9:15 PM 32.7 °F 27.3 °F 27.3 °F 81% 30.13 in 10.0 mi NW 5.8 mph - N/A   Mostly Cloudy
9:35 PM 32.4 °F 27.9 °F 27.3 °F 82% 30.14 in 10.0 mi NW 4.6 mph - N/A   Overcast
9:55 PM 32.9 °F 28.5 °F 27.3 °F 80% 30.14 in 10.0 mi NNW 4.6 mph - N/A   Overcast
10:15 PM 32.9 °F 25.9 °F 27.3 °F 80% 30.14 in 10.0 mi NNW 8.1 mph - N/A   Overcast
10:35 PM 32.7 °F 23.9 °F 27.0 °F 79% 30.14 in 10.0 mi NNW 11.5 mph - N/A   Overcast
10:55 PM 32.2 °F 25.0 °F 26.6 °F 80% 30.14 in 10.0 mi NNW 8.1 mph - N/A   Overcast
11:15 PM 32.0 °F 24.2 °F 26.6 °F 80% 30.14 in 10.0 mi NW 9.2 mph - N/A   Overcast
11:35 PM 32.0 °F 26.4 °F 26.2 °F 79% 30.14 in 10.0 mi NNW 5.8 mph - N/A   Overcast
11:55 PM 32.0 °F 27.5 °F 25.9 °F 78% 30.14 in 10.0 mi NNW 4.6 mph - N/A   Overcast